CW8164 Weather Reports


Display with metric or nautical units.
time (UTC)temp
F
wind
direction
speed
MPH
gust
MPH
rain 1hr
in
rain 24hr
in
rain mn
in
humidity
%
barometer
mb
20180718235904 83 120 3.0 10.0 0.00 0.00 0.00 42 1019.5
20180718234903 83 181 3.0 10.0 0.00 0.00 0.00 42 1019.6
20180718233903 82 283 3.0 12.0 0.00 0.00 0.00 45 1019.8
20180718233404 82 308 5.0 12.0 0.00 0.00 0.00 44 1019.8
20180718232404 82 308 3.0 9.0 0.00 0.00 0.00 45 1019.9
20180718231904 82 329 2.0 8.0 0.00 0.00 0.00 46 1019.9
20180718231404 82 233 3.0 10.0 0.00 0.00 0.00 46 1019.9
20180718225408 81 356 3.0 9.0 0.00 0.00 0.00 46 1020.1
20180718224408 81 279 3.0 9.0 0.00 0.00 0.00 49 1020.1
20180718223908 81 308 3.0 8.0 0.00 0.00 0.00 47 1020.2
20180718223408 80 289 3.0 8.0 0.00 0.00 0.00 48 1020.2
20180718221907 81 304 4.0 9.0 0.00 0.00 0.00 49 1020.4
20180718213907 79 49 3.0 12.0 0.00 0.00 0.00 52 1020.9
20180718205909 77 322 5.0 13.0 0.00 0.00 0.00 55 1021.4
20180718205408 77 3 5.0 13.0 0.00 0.00 0.00 54 1021.5
20180718204908 76 260 1.0 9.0 0.00 0.00 0.00 57 1021.6
20180718203407 75 33 3.0 12.0 0.00 0.00 0.00 56 1021.7
20180718201407 74 271 3.0 12.0 0.00 0.00 0.00 60 1021.9
20180718195908 72 71 3.0 10.0 0.00 0.00 0.00 62 1022.0
20180718195409 72 312 2.0 10.0 0.00 0.00 0.00 62 1022.0
20180718194908 72 27 5.0 10.0 0.00 0.00 0.00 65 1022.1
20180718194412 71 11 2.0 8.0 0.00 0.00 0.00 64 1022.1
20180718193907 71 117 1.0 8.0 0.00 0.00 0.00 64 1022.2
20180718193408 71 278 1.0 8.0 0.00 0.00 0.00 66 1022.2
20180718192908 71 161 2.0 8.0 0.00 0.00 0.00 66 1022.3
20180718192408 71 15 3.0 7.0 0.00 0.00 0.00 66 1022.3
20180718191408 70 241 1.0 5.0 0.00 0.00 0.00 67 1022.4
20180718190908 69 188 2.0 6.0 0.00 0.00 0.00 69 1022.4
20180718190407 69 304 2.0 7.0 0.00 0.00 0.00 69 1022.5
20180718185908 69 171 4.0 7.0 0.00 0.00 0.00 68 1022.5
20180718185408 69 200 2.0 5.0 0.00 0.00 0.00 69 1022.4
20180718181908 68 123 1.0 3.0 0.00 0.00 0.00 71 1022.6
20180718180907 67 310 2.0 6.0 0.00 0.00 0.00 72 1022.6
20180718180407 67 182 2.0 6.0 0.00 0.00 0.00 73 1022.6
20180718175407 67 179 1.0 3.0 0.00 0.00 0.00 73 1022.6
20180718174908 66 296 1.0 5.0 0.00 0.00 0.00 74 1022.6
20180718174407 66 289 2.0 5.0 0.00 0.00 0.00 74 1022.6
20180718172407 67 211 2.0 5.0 0.00 0.00 0.00 71 1022.6
20180718171408 67 266 1.0 6.0 0.00 0.00 0.00 74 1022.6
20180718165907 66 303 1.0 3.0 0.00 0.00 0.00 76 1022.6
20180718165408 65 303 1.0 3.0 0.00 0.00 0.00 75 1022.7
20180718164407 65 292 1.0 3.0 0.00 0.00 0.00 75 1022.7
20180718163908 65 306 1.0 7.0 0.00 0.00 0.00 75 1022.7
20180718161408 64 272 2.0 3.0 0.00 0.00 0.00 78 1022.6
20180718160407 64 314 0.0 3.0 0.00 0.00 0.00 78 1022.5
20180718155407 64 293 2.0 3.0 0.00 0.00 0.00 78 1022.5
20180718154407 64 223 2.0 7.0 0.00 0.00 0.00 76 1022.4
20180718153907 64 32 1.0 3.0 0.00 0.00 0.00 75 1022.3
20180718152407 64 57 1.0 2.0 0.00 0.00 0.00 77 1022.3
20180718151908 64 97 1.0 2.0 0.00 0.00 0.00 78 1022.3
20180718151407 63 169 0.0 1.0 0.00 0.00 0.00 79 1022.1
20180718145907 62 170 0.0 2.0 0.00 0.00 0.00 81 1022.1
20180718145407 62 172 0.0 2.0 0.00 0.00 0.00 82 1022.1
20180718144907 62 172 1.0 2.0 0.00 0.00 0.00 82 1022.1
20180718143908 62 143 0.0 1.0 0.00 0.00 0.00 83 1022.1
20180718142407 61 37 0.0 2.0 0.00 0.00 0.00 85 1021.9
20180718141907 61 32 0.0 0.0 0.00 0.00 0.00 86 1021.9
20180718140908 61 32 0.0 1.0 0.00 0.00 0.00 86 1021.8
20180718140413 61 32 0.0 1.0 0.00 0.00 0.00 87 1021.7
20180718135907 61 32 0.0 2.0 0.00 0.00 0.00 87 1021.7
20180718135407 61 32 0.0 2.0 0.00 0.00 0.00 88 1021.6
20180718134908 61 32 1.0 2.0 0.00 0.00 0.00 87 1021.7
20180718134407 61 32 0.0 2.0 0.00 0.00 0.00 88 1021.7
20180718133908 60 32 0.0 0.0 0.00 0.00 0.00 87 1021.6
20180718132907 60 32 0.0 0.0 0.00 0.00 0.00 88 1021.6
20180718131907 60 32 0.0 0.0 0.00 0.00 0.00 88 1021.4
20180718130907 60 32 0.0 2.0 0.00 0.00 0.00 88 1021.2
20180718124907 60 32 0.0 2.0 0.00 0.00 0.00 88 1021.2
20180718124407 60 32 1.0 2.0 0.00 0.00 0.00 88 1021.2
20180718123907 60 35 1.0 2.0 0.00 0.00 0.00 88 1021.1
20180718123408 60 19 1.0 2.0 0.00 0.00 0.00 88 1021.1
20180718122907 60 19 1.0 3.0 0.00 0.00 0.00 88 1021.1
20180718122407 60 19 1.0 3.0 0.00 0.00 0.00 88 1021.0
20180718120908 60 49 1.0 2.0 0.00 0.00 0.00 88 1021.0
20180718115907 60 49 1.0 3.0 0.00 0.00 0.00 87 1020.9
20180718115409 60 49 1.0 3.0 0.00 0.00 0.00 87 1020.8
20180718114908 60 65 1.0 3.0 0.00 0.00 0.00 87 1020.8
20180718114407 60 342 0.0 2.0 0.00 0.00 0.00 87 1020.7
20180718113407 60 342 1.0 3.0 0.00 0.00 0.00 87 1020.7
20180718112407 61 332 1.0 3.0 0.00 0.00 0.00 86 1020.6
20180718110407 61 30 0.0 2.0 0.00 0.00 0.00 86 1020.4
20180718105907 61 27 0.0 2.0 0.00 0.00 0.00 86 1020.5
20180718105407 61 37 1.0 3.0 0.00 0.00 0.00 86 1020.4
20180718104907 61 319 0.0 3.0 0.00 0.00 0.00 86 1020.4
20180718103907 61 357 1.0 3.0 0.00 0.00 0.00 85 1020.4
20180718103407 61 279 1.0 3.0 0.00 0.00 0.00 85 1020.4
20180718102407 61 315 2.0 6.0 0.00 0.00 0.00 85 1020.3
20180718095907 61 266 1.0 3.0 0.00 0.00 0.00 86 1020.2
20180718095407 61 254 1.0 6.0 0.00 0.00 0.00 86 1020.2
20180718093907 61 328 0.0 5.0 0.00 0.00 0.00 85 1020.2
20180718093407 61 330 1.0 5.0 0.00 0.00 0.00 85 1020.2
20180718092907 61 208 2.0 5.0 0.00 0.00 0.00 85 1020.1
20180718092407 61 255 1.0 5.0 0.00 0.00 0.00 85 1020.1
20180718091407 61 178 1.0 3.0 0.00 0.00 0.00 86 1020.0
20180718085907 61 276 0.0 1.0 0.00 0.00 0.00 86 1019.9
20180718084407 61 275 0.0 1.0 0.00 0.00 0.00 87 1019.8
20180718082907 60 275 0.0 2.0 0.00 0.00 0.00 87 1019.7
20180718081907 60 306 0.0 2.0 0.00 0.00 0.00 88 1019.7
20180718080907 60 306 1.0 2.0 0.00 0.00 0.00 88 1019.3
20180718080407 60 306 1.0 2.0 0.00 0.00 0.00 88 1019.3
20180718075907 60 245 0.0 2.0 0.00 0.00 0.00 88 1019.2
20180718075407 59 245 0.0 2.0 0.00 0.00 0.00 88 1019.2
20180718073907 59 242 0.0 1.0 0.00 0.00 0.00 88 1019.0
20180718072907 59 242 0.0 1.0 0.00 0.00 0.00 87 1018.8
20180718072406 59 242 0.0 1.0 0.00 0.00 0.00 87 1018.8
20180718071907 60 242 0.0 2.0 0.00 0.00 0.00 86 1018.8
20180718071407 60 242 1.0 2.0 0.00 0.00 0.00 86 1018.7
20180718065907 60 179 0.0 3.0 0.00 0.00 0.00 85 1018.7
20180718065407 60 248 0.0 3.0 0.00 0.00 0.00 85 1018.7
20180718064407 60 271 1.0 3.0 0.00 0.00 0.00 85 1018.5
20180718063407 61 286 1.0 3.0 0.00 0.00 0.00 84 1018.4
20180718061907 61 325 1.0 3.0 0.00 0.00 0.00 83 1018.2
20180718055407 62 246 2.0 5.0 0.00 0.00 0.00 80 1018.0
20180718054907 62 243 1.0 9.0 0.00 0.00 0.00 80 1018.0
20180718052907 64 255 3.0 10.0 0.00 0.00 0.00 77 1017.8
20180718051907 65 279 2.0 8.0 0.00 0.00 0.00 75 1017.7
20180718051407 65 244 3.0 8.0 0.00 0.00 0.00 74 1017.7
20180718045406 67 294 2.0 8.0 0.00 0.00 0.00 70 1017.4
20180718044907 67 245 3.0 8.0 0.00 0.00 0.00 69 1017.3
20180718043407 69 243 2.0 9.0 0.00 0.00 0.00 67 1017.0
20180718041907 70 269 3.0 8.0 0.00 0.00 0.00 63 1016.6
20180718041407 71 222 2.0 7.0 0.00 0.00 0.00 62 1016.5
20180718040907 72 169 2.0 8.0 0.00 0.00 0.00 61 1016.5
20180718034407 75 311 2.0 9.0 0.00 0.00 0.00 54 1016.1
20180718033907 75 232 4.0 9.0 0.00 0.00 0.00 52 1016.1
20180718033406 76 195 1.0 5.0 0.00 0.00 0.00 51 1016.0
20180718032907 76 230 2.0 6.0 0.00 0.00 0.00 49 1015.9
20180718032406 77 279 1.0 7.0 0.00 0.00 0.00 48 1015.9
20180718031406 78 258 2.0 7.0 0.00 0.00 0.00 45 1015.8
20180718025906 80 29 2.0 9.0 0.00 0.00 0.00 44 1015.6
20180718025406 81 250 2.0 9.0 0.00 0.00 0.00 43 1015.5
20180718024907 81 244 2.0 7.0 0.00 0.00 0.00 43 1015.4
20180718024407 82 331 2.0 7.0 0.00 0.00 0.00 43 1015.4
20180718023907 82 252 1.0 8.0 0.00 0.00 0.00 42 1015.3
20180718023406 82 210 2.0 8.0 0.00 0.00 0.00 42 1015.3
20180718022906 83 131 2.0 7.0 0.00 0.00 0.00 40 1015.3
20180718022407 84 288 3.0 12.0 0.00 0.00 0.00 39 1015.2
20180718020407 86 29 1.0 8.0 0.00 0.00 0.00 36 1015.2
20180718015407 87 210 3.0 8.0 0.00 0.00 0.00 34 1015.0
20180718014907 87 186 3.0 9.0 0.00 0.00 0.00 35 1015.1
20180718014407 87 190 2.0 9.0 0.00 0.00 0.00 35 1015.0
20180718013406 88 254 2.0 7.0 0.00 0.00 0.00 34 1015.0
20180718012906 88 261 2.0 8.0 0.00 0.00 0.00 36 1015.1
20180718011906 89 324 3.0 9.0 0.00 0.00 0.00 34 1015.1
20180718011407 90 323 2.0 6.0 0.00 0.00 0.00 35 1015.0
20180718002907 89 67 2.0 8.0 0.00 0.00 0.00 35 1015.1
20180718002406 89 35 3.0 9.0 0.00 0.00 0.00 36 1015.2
20180718001906 89 316 3.0 9.0 0.00 0.00 0.00 36 1015.2
20180718001406 90 29 5.0 9.0 0.00 0.00 0.00 34 1015.2
20180718000907 89 232 2.0 7.0 0.00 0.00 0.00 35 1015.2
20180718000407 89 344 3.0 10.0 0.00 0.00 0.00 36 1015.2